Погода в Водяной Балке

Украина / Полтавская область     49°54′08″N   34°28′54″E
темп.,
°C
ветер,
м/с
пор.,
м/с
влажн.,
%
обл.,
%
осадки,
мм/ч
давл.,
гПа
погр.,
м
8 марта, пн
пн823:000зюз8157897 0.0 1011848
02:00−1зюз7147994 0.0 1010768
05:00−2зюз7139299 0.2 1009670
08:00−1з7128998 0.4 1009702
11:00+1з7108999 0.6 1010740
14:00+2зсз795799 0.8 10101527
17:00−1зсз587097 0.1 1011764
20:00−3з357951 0.1 1012150
9 марта, вт
вт923:00−3з377834 0.0 1013266
02:00−3зсз478863 0.1 1013476
05:00−4сз698792 0.2 1014588
08:00−5сз687287 0.2 1017763
11:00−3сз676085 0.0 10181049
14:00−3ссз675893 0.0 10201070
17:00−5ссз576551 0.0 1021882
20:00−6ссз477134 0.0 1023762
10 марта, ср
ср1023:00−6ссз356910 0.0 1025649
02:00−7ссз34745 0.0 1026411
05:00−8с237828 0.0 1026260
08:00−7с226857 0.0 1027298
11:00−4св114898 0.0 1026667
14:00−2всв113992 0.0 1026919
17:00−3всв114248 0.0 1024753
20:00−4всв235024 0.0 102574
11 марта, чт
чт1123:00−5всв12520 0.0 102632
02:00−5в11530 0.0 102621
05:00−6всв12565 0.0 102621
08:00−4всв225032 0.0 1027211
11:00−2юв223792 0.0 1027987
14:000ююв223273 0.0 10261428
17:00−1ююв24408 0.0 1026139
20:00−3ююв35484 0.0 1026131
12 марта, пт
пт1223:00−3ююв594921 0.0 1026350
02:00−3ююв6125158 0.0 1025590
05:00−3ю71356100 0.0 1023738
08:00−2ю111654100 0.0 10221156
11:00−1ю121875100 0.1 10191165
14:00−1ю121891100 2.1 10171199
17:00−1ю111895100 2.8 10141080
20:000ю91598100 7.6 1013636